DW2465 Weather Reports


time (UTC)temp
C
wind
direction
speed
KPH
gust
KPH
rain 1hr
cm
rain 24hr
cm
rain mn
cm
humidity
%
barometer
mb
20260906203006 23 175 0.0 0.0 0.00 0.00 0.00 82 1016.5
20260906201508 23 360 0.0 0.0 0.00 0.00 0.00 82 1016.7
20260906200104 23 135 0.0 0.0 0.00 0.00 0.00 81 1016.7
20260906194530 23 140 0.0 0.0 0.00 0.00 0.00 82 1016.3
20260906193028 23 130 0.0 0.0 0.00 0.00 0.00 82 1016.3
20260906191607 23 105 0.0 0.0 0.00 0.00 0.00 82 1016.3
20260906190053 23 154 0.0 0.0 0.00 0.00 0.00 82 1016.2
20260906184552 23 150 0.0 0.0 0.00 0.00 0.00 82 1016.1
20260906183051 23 121 0.0 0.0 0.00 0.00 0.00 82 1016.2
20260906181548 22 101 0.0 0.0 0.00 0.00 0.00 82 1016.2
20260906180105 22 41 0.0 0.0 0.00 0.00 0.00 83 1016.2
20260906174555 22 132 0.0 0.0 0.00 0.00 0.00 84 1016.2
20260906173042 22 144 0.0 0.0 0.00 0.00 0.00 85 1016.2
20260906171541 22 110 0.0 0.0 0.00 0.00 0.00 85 1016.3
20260906170041 22 96 0.0 0.0 0.00 0.00 0.00 85 1016.5
20260906164539 22 130 0.0 0.0 0.00 0.00 0.00 85 1016.6
20260906163037 22 360 0.0 0.0 0.00 0.00 0.00 85 1016.6
20260906161538 22 123 0.0 0.0 0.00 0.00 0.00 85 1016.7
20260906160037 22 136 0.0 0.0 0.00 0.00 0.00 86 1016.7
20260906154535 22 103 0.0 0.0 0.00 0.00 0.00 85 1016.8
20260906153044 22 104 0.0 0.0 0.00 0.00 0.00 84 1016.8
20260906151545 22 242 0.0 0.0 0.00 0.00 0.00 85 1016.8
20260906150035 22 119 0.0 0.0 0.00 0.00 0.00 85 1016.8
20260906144531 22 140 0.0 0.0 0.00 0.00 0.00 86 1016.7
20260906143037 22 98 0.0 0.0 0.00 0.00 0.00 87 1016.6
20260906141527 22 167 0.0 0.0 0.00 0.00 0.00 87 1016.4
20260906140032 21 122 0.0 0.0 0.00 0.00 0.00 88 1016.5
20260906134525 21 110 0.0 0.0 0.00 0.00 0.00 89 1016.6
20260906133026 21 173 0.0 0.0 0.00 0.00 0.00 89 1016.3
20260906131521 21 129 0.0 0.0 0.00 0.00 0.00 91 1016.2
20260906130020 21 113 0.0 0.0 0.00 0.00 0.00 91 1016.1
20260906124520 20 107 0.0 0.0 0.00 0.00 0.00 92 1016.3
20260906123029 20 92 0.0 0.0 0.00 0.00 0.00 92 1016.2
20260906121514 20 129 0.0 0.0 0.00 0.00 0.00 92 1016.1
20260906120012 20 105 0.0 0.0 0.00 0.00 0.00 92 1016.0
20260906114512 20 128 0.0 0.0 0.00 0.00 0.00 92 1016.0
20260906113007 20 121 0.0 0.0 0.00 0.00 0.00 91 1015.8
20260906111506 20 94 0.0 0.0 0.00 0.00 0.00 91 1015.8
20260906110004 21 117 0.0 0.0 0.00 0.00 0.00 90 1015.8
20260906104503 21 90 0.0 0.0 0.00 0.00 0.00 90 1015.6
20260906103032 21 115 0.0 0.0 0.00 0.00 0.00 90 1015.6
20260906101532 21 82 0.0 0.0 0.00 0.00 0.00 89 1015.5
20260906100031 21 117 0.0 0.0 0.00 0.00 0.00 89 1015.5
20260906094526 21 121 0.0 0.0 0.00 0.00 0.00 88 1015.5
20260906093035 21 132 0.0 0.0 0.00 0.00 0.00 87 1015.2
20260906091522 21 119 0.0 0.0 0.00 0.00 0.00 87 1015.1
20260906090036 21 115 0.0 0.0 0.00 0.00 0.00 87 1015.1
20260906084520 21 112 0.0 0.0 0.00 0.00 0.00 87 1014.9
20260906083018 22 94 0.0 0.0 0.00 0.00 0.00 86 1014.8
20260906081518 22 110 0.0 0.0 0.00 0.00 0.00 85 1014.8
20260906080046 22 110 0.0 0.0 0.00 0.00 0.00 85 1014.7
20260906074543 22 108 0.0 0.0 0.00 0.00 0.00 84 1014.7
20260906073012 22 94 0.0 0.0 0.00 0.00 0.00 84 1014.8
20260906071510 22 111 0.0 0.0 0.00 0.00 0.00 84 1015.1
20260906070007 22 121 0.0 0.0 0.00 0.00 0.00 84 1015.1
20260906064506 22 116 0.0 0.0 0.00 0.00 0.00 86 1015.1
20260906063006 22 119 0.0 0.0 0.00 0.00 0.00 86 1015.4
20260906061505 22 113 0.0 0.0 0.00 0.00 0.00 86 1015.4
20260906060001 22 130 0.0 0.0 0.00 0.00 0.00 86 1015.2
20260906054601 22 130 0.0 0.0 0.00 0.00 0.00 85 1015.2
20260906053059 22 111 0.0 0.0 0.00 0.00 0.00 85 1015.2
20260906051604 22 120 0.0 0.0 0.00 0.00 0.00 86 1015.2
20260906050105 22 139 0.0 0.0 0.00 0.00 0.00 86 1015.4
20260906044554 22 116 0.0 0.0 0.00 0.00 0.00 85 1015.6
20260906043058 22 110 0.0 0.0 0.00 0.00 0.00 85 1015.6
20260906041557 23 92 0.0 0.0 0.00 0.00 0.00 85 1015.7
20260906040051 23 88 0.0 0.0 0.00 0.00 0.00 84 1015.5
20260906034607 23 101 0.0 0.0 0.00 0.00 0.00 84 1015.7
20260906033048 23 130 0.0 0.0 0.00 0.00 0.00 84 1015.7
20260906031551 23 121 0.0 0.0 0.00 0.00 0.00 83 1015.7
20260906030019 23 126 0.0 0.0 0.00 0.00 0.00 83 1015.6
20260906024519 23 146 0.0 0.0 0.00 0.00 0.00 82 1015.5
20260906023047 24 148 0.0 0.0 0.00 0.00 0.00 81 1015.7
20260906021546 24 153 0.0 0.0 0.00 0.00 0.00 81 1015.5
20260906020019 24 174 0.0 0.0 0.00 0.00 0.00 80 1015.1
20260906014525 24 156 0.0 0.0 0.00 0.00 0.00 78 1014.5
20260906013014 25 141 0.0 0.0 0.00 0.00 0.00 77 1014.0
20260906011512 25 148 0.0 0.0 0.00 0.00 0.00 76 1013.5
20260906010011 25 138 0.0 0.0 0.00 0.00 0.00 74 1013.4
20260906004511 26 175 0.0 0.0 0.00 0.00 0.00 72 1013.2
20260906003008 26 166 0.0 0.0 0.00 0.00 0.00 69 1013.2
20260906001508 27 180 0.0 0.0 0.00 0.00 0.00 68 1013.1
20260906000007 27 188 0.0 0.0 0.00 0.00 0.00 66 1012.9
20260905234507 28 94 0.0 0.0 0.00 0.00 0.00 63 1012.9
20260905233007 28 92 0.0 0.0 0.00 0.00 0.00 61 1012.9
20260905231536 28 65 0.0 0.0 0.00 0.00 0.00 61 1012.9
20260905230040 28 89 0.0 0.0 0.00 0.00 0.00 63 1012.7
20260905224533 28 78 0.0 0.0 0.00 0.00 0.00 62 1012.5
20260905223035 28 71 0.0 0.0 0.00 0.00 0.00 63 1012.4
20260905221531 28 113 0.0 0.0 0.00 0.00 0.00 63 1012.1
20260905220032 28 88 0.0 0.0 0.00 0.00 0.00 62 1012.3
20260905214528 28 41 0.0 0.0 0.00 0.00 0.00 63 1012.6
20260905213023 28 119 0.0 0.0 0.00 0.00 0.00 63 1012.8
20260905211521 28 96 0.0 0.0 0.00 0.00 0.00 64 1012.9
20260905210028 27 122 0.0 0.0 0.00 0.00 0.00 68 1013.2
20260905204515 27 74 0.0 0.0 0.00 0.00 0.00 68 1013.3